sat.trackr.live / text

‹ back to catalog

CSG-2

NORAD 51444 · 2022-008A

PAYLOAD ACTIVE UNKNOWN

§ Identity

Operator
Country
IT
Launch date
2022-01-31
Launch site
AFETR
Launch vehicle
Mass (kg)
RCS (m²)

Purposes: earth_obs

External: N2YO · Heavens-Above · Gunter

§ Orbital elements

Epoch: 2026-05-25T04:46:37.654752Z

Period
97.16 min
Inclination
97.8890°
Eccentricity
0.0001409
Mean motion
14.82154248 rev/d
Perigee alt
621.5 km
Apogee alt
623.5 km
Semi-major
7,000.7 km
B*
4.8582e-5
RAAN
329.1302°
Arg perigee
88.1457°
Mean anomaly
271.9917°
Rev number
23,318

§ Raw data

CSG-21 51444U 22008A   26145.19904693  .00000335  00000+0  48582-4 0  99902 51444  97.8890 329.1302 0001409  88.1457 271.9917 14.82154248233180

JSON: /api/v1/satellites/51444 · /tle

For live sub-satellite position, see the globe view (requires WebGL).

§ Visibility from observer

Set your observer location to see the next 7 days of passes ≥ 10°. The values pass through the URL so the page stays shareable.

No JS? Fill the form by hand. The geolocation button needs JavaScript.